Pompano Beach, FL

6:49 AM EST on February 24, 2017 (GMT -0500)
Pompano Beach

Weather History for KPMP - February, 2014

Change the Weather History Date:

Saturday, February 15, 2014

  Actual Average Record
Temperature  
Mean Temperature 68 °F -  
Max Temperature 80 °F 78 °F 86 °F (2017)
Min Temperature 55 °F 58 °F 39 °F (1960)
Cooling Degree Days 2    
Growing Degree Days 18 (Base 50)    
Moisture  
Dew Point 53 °F    
Average Humidity 64    
Maximum Humidity 87    
Minimum Humidity 39    
Precipitation  
Precipitation 0.00 in - - ()
Sea Level Pressure  
Sea Level Pressure 30.05 in    
Wind  
Wind Speed 8 mph (WNW)    
Max Wind Speed 18 mph    
Max Gust Speed 26 mph    
Visibility 10 miles    
Events      
Averages and records for this station are not official NWS values.
T = Trace of Precipitation, MM = Missing Value Source: NWS Daily Summary

Daily Weather History Graph

Daily Weather History Graph

Search for Another Location

Airport or City:

Trip Planner

Search our weather history database for the weather conditions in past years. The results will help you decide how hot, cold, wet, or windy it might be!

Date:

Astronomy

Feb. 15, 2014 Rise Set
Actual Time 6:56 AM EST 6:13 PM EST
Civil Twilight 6:32 AM EST 6:36 PM EST
Nautical Twilight 6:05 AM EST 7:04 PM EST
Astronomical Twilight 5:38 AM EST 7:31 PM EST
Moon 7:01 PM EST (2/15) 7:02 AM EST (2/15)
Length of Visible Light 12h 04m
Length of Day
11h 17m
Full, 100% of the Moon is Illuminated
Feb 15
Full
Feb 22
Last Quarter
Mar 1
New
Mar 8
First Quarter
Mar 16
Full

Hourly Weather History & Observations

Time (EST) Temp. Heat Index Dew Point Humidity Pressure Visibility Wind Dir Wind Speed Gust Speed Precip Events Conditions
12:53 AM 57.0 °F - 50.0 °F 77% 30.02 in 10.0 mi West 6.9 mph - N/A   Clear
1:53 AM 55.9 °F - 50.0 °F 80% 30.00 in 10.0 mi West 8.1 mph - N/A   Partly Cloudy
2:53 AM 57.0 °F - 51.1 °F 81% 29.99 in 10.0 mi West 3.5 mph - N/A   Clear
3:53 AM 55.9 °F - 51.1 °F 84% 30.00 in 10.0 mi Calm Calm - N/A   Clear
4:53 AM 55.9 °F - 51.1 °F 84% 30.00 in 10.0 mi Calm Calm - N/A   Clear
5:53 AM 55.9 °F - 51.1 °F 84% 30.02 in 10.0 mi WSW 3.5 mph - N/A   Clear
6:53 AM 55.9 °F - 52.0 °F 87% 30.05 in 10.0 mi West 3.5 mph - N/A   Mostly Cloudy
7:53 AM 60.1 °F - 54.0 °F 80% 30.06 in 10.0 mi SSW 3.5 mph - N/A   Clear
8:53 AM 66.0 °F - 55.9 °F 70% 30.08 in 10.0 mi SW 9.2 mph - N/A   Clear
9:53 AM 72.0 °F - 57.9 °F 61% 30.08 in 10.0 mi WSW 12.7 mph - N/A   Clear
10:53 AM 73.9 °F - 57.9 °F 57% 30.07 in 10.0 mi West 15.0 mph 20.7 mph N/A   Scattered Clouds
11:53 AM 75.9 °F - 57.9 °F 54% 30.05 in 10.0 mi West 18.4 mph 25.3 mph N/A   Scattered Clouds
12:53 PM 78.1 °F - 55.9 °F 46% 30.03 in 10.0 mi West 15.0 mph 26.5 mph N/A   Partly Cloudy
1:53 PM 79.0 °F - 55.0 °F 44% 30.00 in 10.0 mi West 13.8 mph 24.2 mph N/A   Mostly Cloudy
2:53 PM 80.1 °F 79.9 °F 53.1 °F 39% 30.00 in 10.0 mi West 15.0 mph - N/A   Scattered Clouds
3:53 PM 80.1 °F 79.9 °F 53.1 °F 39% 30.01 in 10.0 mi West 13.8 mph - N/A   Scattered Clouds
4:53 PM 77.0 °F - 55.0 °F 47% 30.03 in 10.0 mi NNW 16.1 mph 24.2 mph N/A   Partly Cloudy
5:53 PM 73.9 °F - 54.0 °F 50% 30.06 in 10.0 mi NNW 13.8 mph - N/A   Partly Cloudy
6:53 PM 71.1 °F - 52.0 °F 51% 30.08 in 10.0 mi NNW 10.4 mph - N/A   Clear
7:53 PM 68.0 °F - 52.0 °F 56% 30.10 in 10.0 mi NNW 5.8 mph - N/A   Clear
8:53 PM 66.0 °F - 53.1 °F 63% 30.12 in 10.0 mi NW 5.8 mph - N/A   Clear
9:53 PM 64.9 °F - 53.1 °F 65% 30.12 in 10.0 mi NNW 4.6 mph - N/A   Clear
10:53 PM 63.0 °F - 52.0 °F 67% 30.14 in 10.0 mi NW 6.9 mph - N/A   Clear
11:53 PM 60.1 °F - 46.9 °F 62% 30.13 in 10.0 mi NNW 4.6 mph - N/A   Clear